sat.trackr.live / text

‹ back to catalog

SPARK 1

NORAD 41900 · 2016-081C

PAYLOAD ACTIVE UNKNOWN

§ Identity

Operator
Country
PRC
Launch date
2016-12-21
Launch site
JSC
Launch vehicle
Mass (kg)
RCS (m²)
0.25

External: N2YO · Heavens-Above · Gunter

§ Orbital elements

Epoch: 2026-05-24T23:26:56.154048Z

Period
98.65 min
Inclination
98.5480°
Eccentricity
0.0024423
Mean motion
14.59756778 rev/d
Perigee alt
676.7 km
Apogee alt
711.2 km
Semi-major
7,072.1 km
B*
1.1956e-4
RAAN
138.7472°
Arg perigee
34.4126°
Mean anomaly
325.8649°
Rev number
50,088

§ Raw data

SPARK 11 41900U 16081C   26144.97703882  .00000522  00000+0  11956-3 0  99942 41900  98.5480 138.7472 0024423  34.4126 325.8649 14.59756778500884

JSON: /api/v1/satellites/41900 · /tle

For live sub-satellite position, see the globe view (requires WebGL).

§ Visibility from observer

Set your observer location to see the next 7 days of passes ≥ 10°. The values pass through the URL so the page stays shareable.

No JS? Fill the form by hand. The geolocation button needs JavaScript.